"Pseudo-MPEC" for C1G02U5

Created 2026 Sep 5 10:35:04 UT using Find_Orb

Click here for an explanation of pseudo-MPECs

 
 Astrometry: 
     C1G02U5*1C2026 09 05.23292622 07 23.941-04 59 38.26   ~956K 21.45GVNEOCPV00
     C1G02U5 1C2026 09 05.23852422 07 26.144-04 59 21.08   ~956K 21.29GVNEOCPV00
     C1G02U5 1C2026 09 05.24410422 07 28.326-04 59 04.06   ~956K 21.70GVNEOCPV00
     C1G02U5 1C2026 09 05.24968322 07 30.508-04 58 47.06   ~956K 21.72GVNEOCPV00
     C1G02U5 1C2026 09 05.33478222 08 03.854-04 54 26.32   ~958K 21.71GVNEOCPV00
     C1G02U5 1C2026 09 05.33540622 08 04.081-04 54 24.66   ~958K 21.88GVNEOCPV00
     C1G02U5 1C2026 09 05.33602722 08 04.330-04 54 22.75   ~958K 21.86GVNEOCPV00
     C1G02U5 1C2026 09 05.33664722 08 04.578-04 54 20.66   ~958K 21.55GVNEOCPV00

Station data:
(V00) Kitt Peak-Bok  (N31.963125 W111.600190)  US/Arizona. Measurers T.
   Beuden, V. F. Carvajal, D. Fay, J. B. Fazekas, D. C. Fuls, A. R. Gibbs, A.
   D. Grauer, H. Gröller, J. K. Hogan, R. A. Kowalski, S. M. Larson, G. J.
   Leonard, D. Rankin, R. L. Seaman, F. C. Shelly, K. W. Wierzchoś. 2.25-m
   reflector + 4x4K mosaic CCD.

Orbital elements:  C1G02U5
   Perihelion 2026 Aug 20.256242 +/- 30.3 TT =  6:08:59.2 (JD 2461272.756242)
Epoch 2026 Sep  5.0 TT = JDT 2461288.5   Earth MOID: 0.0729   Ma: 0.0268
M   4.853126251 +/- 15              (J2000 ecliptic)             AutoNEOCP
n   0.308257158 +/- 0.265           Peri.    4.103995 +/- 80
a   2.170337469 +/- 1.24            Node   320.462364 +/- 55
e   0.49985377 +/- 0.253            Incl.    1.481274 +/- 1.1
P   3.19736                H 26.14  G  0.15   U 11.9  SR
q 1.085486091 +/- 0.113    Q 3.255188847 +/- 50.6
From 8 observations 2026 Sept. 5 (2.5 hr); mean residual 0".09
Residuals in arcseconds: 
260905 V00  .06+  .04-    260905 V00  .14-  .03-    260905 V00  .04-  .11-    
260905 V00  .10+  .05+    260905 V00  .15+  .14+    260905 V00  .03+  .08+    
260905 V00  .04-  .02+    260905 V00  .12-  .11-    

Ephemerides (geocentric):
Date (UTC) HH   RA             Dec           delta  r     elong  mag " sig PA
---- --------  ------------   ------------  ------ ------ -----  --- --------
2026 09 05 11  22 08 57.903   -04 47 15.96  .09535 1.1018 168.2 21.9  138 122
2026 09 05 12  22 09 15.438   -04 45 09.60  .09543 1.1018 168.2 21.9  162 116
2026 09 05 13  22 09 32.943   -04 43 03.44  .09552 1.1019 168.3 21.9  187 113
2026 09 05 14  22 09 50.418   -04 40 57.50  .09560 1.1020 168.3 21.9  214 110
2026 09 05 15  22 10 07.863   -04 38 51.77  .09569 1.1021 168.3 21.9  241 108
2026 09 05 16  22 10 25.279   -04 36 46.25  .09577 1.1022 168.4 21.9  269 107
2026 09 05 17  22 10 42.664   -04 34 40.94  .09586 1.1023 168.4 21.9  299 105
2026 09 05 18  22 11 00.020   -04 32 35.84  .09594 1.1023 168.4 21.9  329 105
2026 09 05 19  22 11 17.346   -04 30 30.96  .09603 1.1024 168.5 21.9  361 104
2026 09 05 20  22 11 34.641   -04 28 26.29  .09612 1.1025 168.5 21.9  394 103
2026 09 05 21  22 11 51.907   -04 26 21.83  .09620 1.1026 168.5 21.9  428 103
2026 09 05 22  22 12 09.143   -04 24 17.59  .09629 1.1027 168.5 21.9  463 103
2026 09 05 23  22 12 26.349   -04 22 13.56  .09638 1.1028 168.6 21.9  500 103
2026 09 06 00  22 12 43.525   -04 20 09.74  .09647 1.1029 168.6 21.9  538 103
2026 09 06 01  22 13 00.672   -04 18 06.14  .09656 1.1029 168.6 21.9  578 103
2026 09 06 02  22 13 17.788   -04 16 02.76  .09664 1.1030 168.7 21.9  620 103
2026 09 06 03  22 13 34.874   -04 13 59.59  .09673 1.1031 168.7 21.9  663 103
2026 09 06 04  22 13 51.931   -04 11 56.64  .09682 1.1032 168.7 21.9  708 104
2026 09 06 05  22 14 08.957   -04 09 53.90  .09691 1.1033 168.7 21.9  754 104
2026 09 06 06  22 14 25.954   -04 07 51.38  .09700 1.1034 168.8 21.9  803 104
2026 09 06 07  22 14 42.920   -04 05 49.08  .09709 1.1035 168.8 22.0  853 104
2026 09 06 08  22 14 59.857   -04 03 47.00  .09718 1.1035 168.8 22.0  906 105
2026 09 06 09  22 15 16.764   -04 01 45.13  .09727 1.1036 168.9 22.0  960 105
2026 09 06 10  22 15 33.640   -03 59 43.49  .09736 1.1037 168.9 22.0 1017 105
2026 09 06 11  22 15 50.487   -03 57 42.06  .09745 1.1038 168.9 22.0 1075 105
2026 09 06 12  22 16 07.304   -03 55 40.85  .09754 1.1039 168.9 22.0 1136 106
2026 09 06 13  22 16 24.092   -03 53 39.87  .09763 1.1040 169.0 22.0 1199 106
2026 09 06 14  22 16 40.849   -03 51 39.10  .09773 1.1041 169.0 22.0 1264 106
2026 09 06 15  22 16 57.576   -03 49 38.55  .09782 1.1042 169.0 22.0 1332 106
2026 09 06 16  22 17 14.274   -03 47 38.23  .09791 1.1042 169.0 22.0 1401 107
2026 09 06 17  22 17 30.941   -03 45 38.12  .09800 1.1043 169.1 22.0 1474 107
2026 09 06 18  22 17 47.579   -03 43 38.24  .09810 1.1044 169.1 22.0 1548 107
2026 09 06 19  22 18 04.187   -03 41 38.58  .09819 1.1045 169.1 22.0 1626 107
2026 09 06 20  22 18 20.765   -03 39 39.14  .09828 1.1046 169.1 22.0 1705 108
2026 09 06 21  22 18 37.313   -03 37 39.92  .09837 1.1047 169.2 22.0 1788 108
2026 09 06 22  22 18 53.831   -03 35 40.92  .09847 1.1048 169.2 22.0 1873 108
2026 09 06 23  22 19 10.320   -03 33 42.15  .09856 1.1049 169.2 22.0 1961 108
2026 09 07 00  22 19 26.778   -03 31 43.60  .09866 1.1050 169.2 22.0 2051 108
2026 09 07 01  22 19 43.207   -03 29 45.28  .09875 1.1050 169.3 22.0 2145 109
2026 09 07 02  22 19 59.606   -03 27 47.17  .09885 1.1051 169.3 22.0 2241 109
2026 09 07 03  22 20 15.975   -03 25 49.30  .09894 1.1052 169.3 22.0 2340 109
2026 09 07 04  22 20 32.315   -03 23 51.64  .09904 1.1053 169.3 22.0 2442 109
2026 09 07 05  22 20 48.624   -03 21 54.21  .09913 1.1054 169.4 22.0 2548 109
2026 09 07 06  22 21 04.904   -03 19 57.01  .09923 1.1055 169.4 22.0 2657 109
2026 09 07 07  22 21 21.154   -03 18 00.03  .09932 1.1056 169.4 22.0 2768 109
2026 09 07 08  22 21 37.375   -03 16 03.27  .09942 1.1057 169.4 22.0 2884 110
2026 09 07 09  22 21 53.565   -03 14 06.74  .09952 1.1058 169.5 22.0 3003 110
2026 09 07 10  22 22 09.726   -03 12 10.44  .09961 1.1059 169.5 22.0 3125 110